Danville, IN

2:07 PM EDT on June 25, 2017 (GMT -0400)
Vermilion County

Weather History for KDNV - October, 2012

Change the Weather History Date:

Monday, October 8, 2012

  Actual Average (KLAF) Record (KLAF)
Temperature  
Mean Temperature 42 °F -  
Max Temperature 57 °F 69 °F 90 °F (2007)
Min Temperature 28 °F 45 °F 27 °F (2012)
Degree Days  
Heating Degree Days 22    
Moisture  
Dew Point 30 °F    
Average Humidity 67    
Maximum Humidity 100    
Minimum Humidity 34    
Precipitation  
Precipitation 0.00 in - - ()
Sea Level Pressure  
Sea Level Pressure 30.13 in    
Wind  
Wind Speed 3 mph (South)    
Max Wind Speed 14 mph    
Max Gust Speed 22 mph    
Visibility 10 miles    
Events      
Averages and records for this station are not official NWS values.
T = Trace of Precipitation, MM = Missing Value Source: NWS Daily Summary

Daily Weather History Graph

Daily Weather History Graph

Search for Another Location

Airport or City:

Trip Planner

Search our weather history database for the weather conditions in past years. The results will help you decide how hot, cold, wet, or windy it might be!

Date:

Astronomy

Oct. 08, 2012 Rise Set
Actual Time 6:54 AM CDT 6:20 PM CDT
Civil Twilight 6:27 AM CDT 6:47 PM CDT
Nautical Twilight 5:55 AM CDT 7:19 PM CDT
Astronomical Twilight 5:24 AM CDT 7:50 PM CDT
Moon No Moon Rise 2:10 PM CDT (10/8)
Length of Visible Light 12h 20m
Length of Day
11h 26m
Last Quarter, 46% of the Moon is Illuminated
Oct 8
Last Quarter
Oct 15
New
Oct 21
First Quarter
Oct 29
Full
Nov 6
Last Quarter

Hourly Weather History & Observations

Time (CDT) Temp. Windchill Dew Point Humidity Pressure Visibility Wind Dir Wind Speed Gust Speed Precip Events Conditions
12:15 AM 32.2 °F - 30.9 °F 95% 30.17 in 10.0 mi Calm Calm - N/A   Clear
12:35 AM 32.4 °F - 31.3 °F 96% 30.17 in 10.0 mi Calm Calm - N/A   Clear
12:55 AM 32.0 °F - 31.3 °F 97% 30.17 in 10.0 mi Calm Calm - N/A   Clear
1:15 AM 31.6 °F - 30.4 °F 95% 30.17 in 10.0 mi Calm Calm - N/A   Clear
1:35 AM 31.6 °F - 30.2 °F 94% 30.18 in 10.0 mi Calm Calm - N/A   Clear
1:55 AM 31.5 °F - 30.2 °F 95% 30.17 in 10.0 mi Calm Calm - N/A   Clear
2:15 AM 30.9 °F - 29.8 °F 96% 30.18 in 10.0 mi Calm Calm - N/A   Clear
2:35 AM 30.4 °F - 29.5 °F 96% 30.17 in 10.0 mi Calm Calm - N/A   Clear
2:55 AM 30.6 °F - 29.7 °F 96% 30.17 in 10.0 mi Calm Calm - N/A   Clear
3:15 AM 30.2 °F - 29.5 °F 97% 30.17 in 10.0 mi Calm Calm - N/A   Clear
3:35 AM 29.7 °F - 28.6 °F 96% 30.17 in 10.0 mi Calm Calm - N/A   Clear
3:55 AM 29.8 °F - 28.9 °F 96% 30.17 in 10.0 mi Calm Calm - N/A   Clear
4:15 AM 30.0 °F - 28.9 °F 96% 30.17 in 10.0 mi Calm Calm - N/A   Clear
4:35 AM 29.1 °F - 28.0 °F 96% 30.18 in 7.0 mi Calm Calm - N/A   Clear
4:55 AM 28.4 °F - 27.9 °F 98% 30.17 in 7.0 mi Calm Calm - N/A   Clear
5:15 AM 28.9 °F - 28.4 °F 98% 30.17 in 10.0 mi Calm Calm - N/A   Clear
5:35 AM 29.1 °F - 28.2 °F 96% 30.18 in 10.0 mi Calm Calm - N/A   Clear
5:55 AM 29.1 °F - 28.2 °F 96% 30.18 in 10.0 mi Calm Calm - N/A   Clear
6:15 AM 30.0 °F - 28.8 °F 95% 30.17 in 10.0 mi Calm Calm - N/A   Clear
6:35 AM 29.8 °F - 28.4 °F 94% 30.18 in 10.0 mi Calm Calm - N/A   Clear
6:55 AM 28.4 °F - 28.4 °F 100% 30.18 in 10.0 mi Calm Calm - N/A   Clear
7:15 AM 29.1 °F - 28.2 °F 96% 30.18 in 10.0 mi Calm Calm - N/A   Clear
7:35 AM 29.1 °F - 28.2 °F 96% 30.18 in 7.0 mi Calm Calm - N/A   Clear
7:55 AM 31.6 °F - 30.4 °F 95% 30.19 in 10.0 mi Calm Calm - N/A   Clear
8:15 AM 33.8 °F 30.8 °F 31.3 °F 90% 30.19 in 10.0 mi South 3.5 mph - N/A   Clear
8:35 AM 35.8 °F 33.0 °F 32.0 °F 86% 30.20 in 10.0 mi South 3.5 mph - N/A   Clear
8:55 AM 38.5 °F 34.1 °F 33.3 °F 81% 30.20 in 10.0 mi South 5.8 mph - N/A   Clear
9:15 AM 42.8 °F 40.1 °F 33.6 °F 70% 30.20 in 10.0 mi SSW 4.6 mph - N/A   Clear
9:35 AM 44.6 °F 40.7 °F 32.4 °F 62% 30.20 in 10.0 mi SSW 6.9 mph - N/A   Clear
9:55 AM 46.6 °F - 32.4 °F 58% 30.20 in 10.0 mi SSW 9.2 mph - N/A   Clear
10:15 AM 48.0 °F - 32.0 °F 54% 30.20 in 10.0 mi SW 10.4 mph - N/A   Clear
10:35 AM 50.0 °F - 31.3 °F 49% 30.19 in 10.0 mi SSW 11.5 mph 16.1 mph N/A   Clear
10:55 AM 51.1 °F - 29.3 °F 43% 30.19 in 10.0 mi South 11.5 mph - N/A   Clear
11:15 AM 51.3 °F - 28.6 °F 42% 30.19 in 10.0 mi South 11.5 mph 16.1 mph N/A   Clear
11:35 AM 52.0 °F - 28.9 °F 41% 30.18 in 10.0 mi South 6.9 mph 17.3 mph N/A   Clear
11:55 AM 52.7 °F - 28.8 °F 40% 30.18 in 10.0 mi SSW 13.8 mph 18.4 mph N/A   Clear
12:15 PM 53.4 °F - 28.4 °F 38% 30.17 in 10.0 mi SW 6.9 mph 17.3 mph N/A   Clear
12:35 PM 53.8 °F - 27.9 °F 37% 30.15 in 10.0 mi WSW 10.4 mph 19.6 mph N/A   Clear
12:55 PM 54.0 °F - 27.5 °F 36% 30.14 in 10.0 mi West 8.1 mph - N/A   Clear
1:15 PM 55.0 °F - 28.4 °F 36% 30.13 in 10.0 mi WSW 12.7 mph 18.4 mph N/A   Clear
1:35 PM 55.4 °F - 28.6 °F 36% 30.12 in 10.0 mi South 10.4 mph 18.4 mph N/A   Clear
1:55 PM 55.6 °F - 28.6 °F 36% 30.11 in 10.0 mi SSW 11.5 mph 18.4 mph N/A   Clear
2:15 PM 55.8 °F - 28.6 °F 35% 30.10 in 10.0 mi SSW 10.4 mph 17.3 mph N/A   Clear
2:35 PM 56.3 °F - 28.9 °F 35% 30.10 in 10.0 mi SSW 9.2 mph 21.9 mph N/A   Clear
2:55 PM 57.2 °F - 29.7 °F 35% 30.09 in 10.0 mi SSW 12.7 mph 17.3 mph N/A   Clear
3:15 PM 57.0 °F - 28.9 °F 34% 30.09 in 10.0 mi South 10.4 mph 18.4 mph N/A   Clear
3:35 PM 56.5 °F - 28.2 °F 34% 30.08 in 10.0 mi SSW 12.7 mph 18.4 mph N/A   Clear
3:55 PM 56.7 °F - 28.6 °F 34% 30.08 in 10.0 mi SSW 10.4 mph 18.4 mph N/A   Clear
4:15 PM 56.5 °F - 28.6 °F 34% 30.07 in 10.0 mi SSW 10.4 mph - N/A   Clear
4:35 PM 56.3 °F - 28.8 °F 35% 30.06 in 10.0 mi SSW 10.4 mph - N/A   Clear
4:55 PM 56.3 °F - 29.8 °F 36% 30.06 in 10.0 mi South 10.4 mph - N/A   Clear
5:15 PM 55.4 °F - 29.3 °F 37% 30.06 in 10.0 mi SSW 10.4 mph - N/A   Clear
5:55 PM 52.9 °F - 30.7 °F 43% 30.06 in 10.0 mi South 6.9 mph - N/A   Clear
6:15 PM 50.4 °F - 30.9 °F 47% 30.06 in 10.0 mi South 6.9 mph - N/A   Clear
6:35 PM 48.4 °F - 31.5 °F 52% 30.06 in 10.0 mi South 6.9 mph - N/A   Clear
6:55 PM 48.2 °F - 31.6 °F 53% 30.06 in 10.0 mi South 5.8 mph - N/A   Clear
7:15 PM 46.2 °F 43.3 °F 32.0 °F 58% 30.06 in 10.0 mi South 5.8 mph - N/A   Clear
7:35 PM 45.5 °F 43.2 °F 32.0 °F 59% 30.07 in 10.0 mi South 4.6 mph - N/A   Clear
7:55 PM 45.9 °F 43.6 °F 32.0 °F 58% 30.07 in 10.0 mi South 4.6 mph - N/A   Clear
8:15 PM 44.6 °F 41.4 °F 32.0 °F 61% 30.07 in 10.0 mi South 5.8 mph - N/A   Clear
8:35 PM 44.1 °F 40.8 °F 32.4 °F 63% 30.07 in 10.0 mi South 5.8 mph - N/A   Clear
8:55 PM 44.1 °F 40.8 °F 32.2 °F 63% 30.08 in 10.0 mi South 5.8 mph - N/A   Clear
9:15 PM 43.2 °F 39.7 °F 32.2 °F 65% 30.08 in 10.0 mi South 5.8 mph - N/A   Clear
9:35 PM 43.2 °F 39.0 °F 32.4 °F 66% 30.08 in 10.0 mi South 6.9 mph - N/A   Clear
9:55 PM 43.0 °F 39.5 °F 32.9 °F 68% 30.08 in 10.0 mi South 5.8 mph - N/A   Clear
10:15 PM 42.8 °F 39.3 °F 32.0 °F 66% 30.08 in 10.0 mi South 5.8 mph - N/A   Clear
10:35 PM 42.8 °F 39.3 °F 32.0 °F 66% 30.08 in 10.0 mi South 5.8 mph - N/A   Clear
10:55 PM 42.8 °F 40.1 °F 32.0 °F 66% 30.08 in 10.0 mi SSE 4.6 mph - N/A   Clear
11:15 PM 42.3 °F 39.4 °F 32.0 °F 67% 30.07 in 10.0 mi SSE 4.6 mph - N/A   Clear
11:35 PM 40.8 °F 38.8 °F 32.0 °F 71% 30.07 in 10.0 mi SSE 3.5 mph - N/A   Clear
11:55 PM 39.7 °F 37.6 °F 32.0 °F 74% 30.06 in 10.0 mi SSE 3.5 mph - N/A   Clear